GFSWCAN_con_mlcape_132.txt.gz
CAPE
1 1 0 1 1 1 2 0 0 0 0 0 0 0 1 6 3 7 8 1 3 0 0 0 0 0 0 0 0 0 0 0 0 0 0 0 0 16 3 4 1 0 5 26 20 47 45 169 143 157 363 483 562 750
1 2 1 1 2 2 2 0 0 0 0 0 0 0 1 5 0 1 6 3 6 4 0 0 0 0 0 0 3 0 0 0 0 6 0 12 2 44 0 9 97 0 0 50 0 162 309 301 393 299 433 676 720 462
1 2 1 1 1 2 1 0 0 0 0 0 0 1 1 2 6 0 12 3 1 2 0 0 0 0 0 0 0 5 0 7 0 80 75 54 56 28 44 9 23 74 38 1 53 26 168 383 389 417 627 224 30 13
0 0 1 1 2 2 0 1 0 0 0 0 0 3 0 0 7 3 3 3 1 3 0 0 0 0 0 0 0 0 1 0 27 65 70 42 61 56 27 78 51 143 153 115 193 244 380 515 497 614 509 305 214 103
0 0 0 0 0 2 1 1 0 0 0 0 0 0 0 2 2 4 9 8 1 6 0 0 0 0 0 0 0 1 2 29 37 46 49 59 63 54 51 9 0 131 106 207 87 240 119 142 475 577 445 388 430 240
0 0 0 0 1 2 1 2 0 0 0 0 0 0 0 1 1 6 5 2 7 4 3 0 0 16 0 0 0 26 63 46 38 104 98 53 48 35 1 0 0 4 81 191 281 569 397 563 237 495 504 499 463 353
0 0 0 0 0 3 2 1 0 0 0 0 0 0 0 2 7 3 2 2 6 1 4 0 8 48 0 0 0 33 51 30 60 74 11 30 52 0 0 0 0 1 31 212 361 410 494 438 347 482 556 682 497 423
1 1 4 0 0 2 3 0 0 0 0 0 0 0 0 1 8 5 2 0 3 4 0 2 36 58 0 0 10 31 34 42 44 43 35 27 2 0 0 0 0 0 55 243 242 242 157 430 463 538 604 739 599 510
1 3 4 3 8 4 4 0 0 0 0 0 0 0 0 2 2 2 0 0 5 5 4 12 56 44 3 23 41 60 73 28 44 21 52 36 0 0 0 0 0 11 38 8 118 318 229 262 375 478 639 712 485 488
2 2 2 4 12 17 4 0 0 0 0 0 0 0 0 0 0 0 1 11 7 0 0 0 46 77 40 31 43 56 49 93 66 63 49 0 0 0 0 0 0 0 4 17 111 335 311 286 190 261 535 502 430 284
0 0 1 0 4 9 0 0 0 0 0 0 0 0 0 0 3 3 27 4 0 5 0 0 7 104 72 68 92 155 100 102 60 63 11 0 3 0 0 0 0 3 36 31 34 44 76 11 103 198 229 203 212 169
0 0 0 0 3 1 0 0 0 1 2 1 0 0 0 2 4 26 18 29 22 6 0 0 3 32 159 158 152 91 114 91 23 48 12 0 1 0 5 6 55 225 148 60 117 149 81 0 79 124 114 167 127 191
1 0 0 0 2 0 0 0 0 0 0 0 0 13 17 7 8 4 7 22 16 3 0 0 0 20 144 241 231 196 95 45 49 17 1 5 0 0 24 0 1 61 87 30 66 86 19 0 131 65 0 0 1 28
1 1 0 0 1 0 0 0 0 0 0 0 8 7 22 18 8 7 10 24 19 1 84 5 0 13 123 90 183 77 86 72 25 7 1 0 0 52 96 26 9 2 14 22 44 6 0 8 0 0 0 0 0 0
0 0 2 0 0 0 0 0 0 2 1 1 16 11 6 15 36 26 34 16 7 44 192 0 8 33 66 70 113 53 41 16 13 30 15 2 74 49 73 1 23 18 7 25 12 0 0 0 0 0 0 0 0 0
0 4 3 0 0 0 0 0 2 5 4 3 1 2 37 66 62 55 18 32 51 101 152 27 29 1 26 46 49 32 40 20 17 84 8 18 105 61 36 134 97 2 20 1 0 0 0 0 0 0 0 0 0 0
2 2 0 0 0 0 0 3 5 17 15 26 0 9 24 52 58 44 34 60 89 60 14 15 24 2 22 17 11 9 22 34 103 76 51 54 27 61 193 270 145 2 2 0 0 0 0 0 0 0 0 0 0 0
6 17 0 0 4 1 1 3 2 4 8 9 22 52 37 11 14 6 1 2 1 22 40 22 37 10 5 0 1 12 57 74 111 222 154 161 202 201 244 199 237 69 3 0 0 0 0 0 0 0 0 0 0 0
22 4 0 3 3 1 1 0 6 7 4 13 8 9 10 5 0 0 0 0 0 30 31 42 7 3 18 82 120 216 175 182 175 252 270 452 443 344 294 184 208 247 63 4 0 0 0 0 0 0 0 0 0 0
1 3 1 2 3 9 4 11 3 13 14 15 10 14 16 7 2 0 0 0 0 17 18 9 4 23 73 106 193 207 273 307 320 225 219 375 456 239 240 194 181 197 137 14 0 0 0 0 0 0 0 0 0 0
0 3 3 2 1 2 14 1 1 0 17 9 12 23 10 2 1 18 16 5 7 11 10 6 23 32 40 118 260 290 251 256 316 274 238 254 301 244 114 145 134 86 56 16 0 0 0 0 0 1 0 0 1 0
1 1 1 3 4 11 5 17 11 20 10 12 10 9 2 0 14 20 21 23 14 4 0 3 8 9 21 24 45 150 242 330 277 212 86 203 420 436 410 420 382 352 401 505 617 604 717 566 297 318 223 146 5 7
0 0 4 6 7 11 2 25 16 25 3 7 14 9 3 32 28 22 8 2 5 36 41 33 20 26 2 4 15 112 161 179 214 271 199 225 254 350 375 439 469 472 405 311 311 271 67 0 0 23 2 0 2 12
0 12 2 4 2 1 13 13 0 1 7 11 9 12 20 66 38 17 6 44 55 16 2 4 5 4 15 45 70 170 113 82 177 406 328 323 332 348 299 199 130 88 68 29 12 4 0 0 0 2 2 3 5 7
1 2 4 1 5 3 7 15 15 2 2 6 2 1 60 58 40 38 43 22 1 5 19 41 59 18 30 38 34 33 72 75 68 81 240 411 453 42 4 0 0 0 1 0 0 0 0 0 0 5 6 8 10 12
0 1 0 8 21 2 11 10 8 11 4 7 13 18 64 30 16 25 19 29 42 14 11 42 55 38 28 97 87 84 61 65 48 47 33 33 53 4 0 0 0 0 0 0 0 0 0 0 0 0 7 6 0 0
1 1 11 10 0 0 2 5 2 0 6 22 14 48 44 18 30 34 24 48 92 63 6 10 14 100 126 161 31 28 64 246 188 188 93 49 18 3 0 0 0 0 0 0 0 0 0 0 0 0 2 6 5 1
2 7 9 21 11 14 8 2 5 35 41 48 28 28 25 19 8 102 72 45 44 47 4 10 48 116 105 93 165 195 156 106 28 8 1 0 0 0 0 0 0 0 0 0 0 0 1 0 0 0 0 0 1 0
3 6 9 12 8 5 5 4 9 27 34 34 47 31 61 72 86 209 133 80 67 33 42 79 104 121 108 93 58 35 21 2 0 0 0 0 0 0 0 0 0 0 6 1 0 0 24 1 5 6 10 10 9 12
0 0 4 6 7 4 0 0 0 4 20 5 23 27 56 35 55 121 219 234 121 15 3 0 0 0 0 0 0 0 0 0 0 0 0 0 0 0 0 0 2 3 7 14 25 16 0 6 24 33 36 36 36 33
1 4 2 0 12 2 22 30 57 32 114 2 14 32 33 62 71 85 10 8 0 0 0 0 0 1 3 8 7 4 0 0 0 0 0 0 0 2 3 1 7 21 33 31 32 30 36 33 41 47 51 58 69 56
0 0 0 15 19 3 5 6 11 23 58 6 27 10 3 22 33 41 162 44 18 20 6 11 17 23 17 1 0 0 0 0 0 0 0 0 0 0 5 24 26 27 67 100 63 42 43 34 31 36 40 50 61 60
0 2 1 2 3 0 0 9 27 32 15 9 13 13 20 40 37 59 14 97 75 48 42 51 42 20 0 0 0 0 0 0 0 0 0 0 0 0 0 2 11 26 28 12 13 14 7 3 6 12 16 25 30 35

GFSWCAN_con_mlcape_135.txt.gz
CAPE
1 1 2 2 2 2 1 2 1 0 0 0 0 0 1 1 0 3 9 8 3 0 0 0 0 0 12 75 15 12 0 0 0 0 6 1 14 63 1 8 40 28 57 19 25 28 79 190 109 1 590 589 647 701
0 0 1 1 2 1 2 2 0 0 0 0 0 0 1 0 5 0 12 10 6 6 0 0 0 0 0 2 15 0 0 0 0 0 0 18 41 41 48 22 4 0 2 38 87 148 296 222 346 408 452 595 754 809
0 0 0 1 0 2 2 1 0 1 0 0 0 0 2 1 1 0 20 11 3 4 0 0 0 0 0 0 3 98 2 32 8 80 14 35 31 49 54 83 81 45 46 0 0 29 55 72 162 151 354 516 311 182
0 0 0 0 2 2 2 0 0 1 0 0 0 0 2 0 0 4 8 12 4 1 0 0 0 0 0 0 0 0 19 29 69 11 3 0 34 40 65 53 97 76 26 1 43 195 174 173 169 241 324 276 161 102
0 0 0 0 0 1 2 2 1 0 0 0 0 0 0 0 0 6 8 11 1 3 1 0 0 0 0 0 0 0 0 3 16 1 1 0 27 0 69 31 30 38 44 109 100 103 315 72 359 231 345 306 359 258
0 0 0 0 0 0 4 2 1 0 0 0 0 0 0 0 1 8 6 6 10 4 7 0 1 6 0 0 0 0 5 15 45 54 39 43 82 46 14 25 60 41 4 8 234 308 328 147 331 327 331 362 509 483
0 0 0 0 0 0 2 1 0 0 0 0 0 0 0 0 4 4 4 0 5 4 6 0 6 4 20 0 0 1 18 38 95 51 53 1 64 0 0 3 11 1 0 11 55 275 307 344 189 359 365 439 528 487
1 1 0 0 0 0 15 2 0 0 0 0 0 0 0 0 1 1 0 0 2 4 7 5 32 95 0 0 0 13 85 113 115 91 60 75 127 62 32 6 0 0 0 0 24 158 109 262 288 342 391 487 630 383
4 2 3 2 3 2 3 2 0 0 0 0 0 0 0 0 2 2 0 0 3 2 8 7 54 38 0 17 23 30 78 95 117 77 39 79 63 117 55 0 0 0 0 0 25 127 111 64 207 197 414 436 506 318
4 3 2 2 3 5 9 3 0 0 0 0 0 0 0 2 0 0 5 16 5 2 3 0 6 19 3 76 68 79 103 22 90 87 95 100 86 55 17 30 0 0 0 0 0 14 159 116 34 190 342 395 447 290
4 1 1 1 1 2 20 0 0 0 0 5 0 0 0 0 5 6 24 33 22 14 1 0 2 60 103 77 51 72 31 64 52 67 91 97 50 32 14 0 0 0 0 0 23 105 146 107 99 170 246 294 309 251
0 0 0 0 0 2 1 0 0 2 9 1 0 0 0 2 4 13 21 28 11 13 31 7 6 93 191 215 110 78 71 16 54 43 71 62 53 26 41 0 0 0 0 3 21 76 104 79 40 106 148 203 211 218
0 1 0 0 0 1 0 0 0 0 0 0 0 1 5 0 3 21 20 34 11 28 40 1 22 54 218 206 165 31 37 36 60 46 55 62 72 38 0 0 0 19 109 124 70 65 162 137 1 65 171 168 165 112
2 1 1 0 0 1 0 0 0 0 0 0 4 0 3 10 8 20 59 28 14 50 41 29 45 38 127 133 119 72 53 95 56 36 39 24 68 14 4 63 9 22 34 80 71 108 235 139 0 97 94 0 0 9
2 1 0 0 0 1 0 0 0 4 1 1 2 19 1 32 78 69 124 143 107 73 91 59 55 71 163 118 125 96 86 56 32 18 33 180 171 129 121 139 34 0 2 35 84 163 150 13 0 6 0 0 0 0
2 0 2 4 0 0 0 0 2 12 6 1 7 9 47 51 85 113 90 77 91 58 121 124 46 36 62 63 46 30 21 27 71 119 2 246 501 361 241 107 19 1 27 70 122 69 1 0 0 0 0 0 0 0
0 2 0 0 0 0 0 1 17 6 11 30 12 9 40 57 101 145 99 114 151 150 36 80 40 19 25 37 40 30 19 21 48 0 29 449 469 684 444 256 39 0 37 16 0 0 0 0 0 0 0 0 0 0
0 20 0 0 1 1 0 0 1 6 12 21 26 54 72 77 78 94 39 69 98 77 84 44 136 79 30 30 35 29 32 19 26 63 175 567 752 712 540 513 178 108 80 21 0 0 0 0 0 0 0 0 0 0
6 17 0 0 3 5 6 1 34 5 6 8 12 18 9 10 19 38 20 22 29 63 42 57 34 19 26 58 106 111 63 27 88 121 231 544 759 674 692 671 642 346 230 159 110 28 25 13 0 0 0 2 12 14
0 2 1 2 1 9 13 38 0 11 7 19 4 10 6 7 13 18 13 12 13 25 17 8 0 38 52 76 131 160 161 243 147 109 101 221 449 646 648 514 442 600 443 297 245 48 98 102 48 18 18 31 45 55
0 0 4 2 2 14 1 3 4 0 17 16 20 23 11 23 12 8 7 16 12 14 12 7 15 32 80 136 216 278 353 192 244 329 299 147 326 419 403 433 514 520 530 320 160 44 18 124 98 97 73 46 13 24
1 7 4 4 9 9 14 21 19 40 16 13 7 0 15 0 0 4 4 10 11 6 2 2 3 19 46 67 49 86 117 318 337 253 190 303 459 550 414 326 345 346 325 287 183 132 116 235 564 708 680 649 384 354
7 1 5 18 17 15 0 32 24 14 20 5 18 28 21 21 26 24 21 12 12 2 4 5 24 109 126 90 28 38 147 231 278 307 298 347 417 568 619 692 684 693 657 604 597 620 542 148 81 326 241 159 191 219
0 8 10 9 17 0 3 24 16 14 20 16 4 16 13 50 105 34 19 50 51 100 100 117 80 28 41 35 15 33 82 204 229 246 394 289 472 638 549 459 422 422 393 318 274 222 141 63 3 46 23 6 3 2
4 0 4 0 15 10 14 8 15 7 1 20 16 17 27 108 81 46 58 40 0 0 0 4 18 23 16 49 54 159 245 213 198 227 206 249 363 345 216 144 90 62 54 46 16 13 5 6 0 2 1 1 0 7
0 5 0 17 22 18 13 5 10 5 6 4 6 42 129 87 56 31 66 16 56 10 41 44 58 54 98 166 97 157 189 120 66 65 82 137 149 152 81 42 10 0 0 0 0 0 0 0 0 0 5 2 0 0
0 15 20 18 12 0 3 5 1 1 0 16 57 64 67 50 36 48 58 154 84 73 75 92 140 264 179 40 9 26 62 69 20 18 35 169 147 65 49 32 3 0 0 0 0 0 0 0 1 1 3 4 4 3
3 11 7 14 16 15 15 13 0 6 29 89 127 92 64 69 80 246 174 201 132 32 161 236 216 257 132 17 60 37 89 332 281 133 88 75 49 1 0 0 0 0 0 0 0 0 1 2 1 1 0 4 5 4
4 5 11 14 19 18 4 4 11 68 127 142 156 110 209 244 368 360 264 128 16 214 316 183 225 281 296 255 180 168 108 92 57 6 1 0 0 0 0 0 0 0 0 0 0 0 0 0 7 4 0 5 10 22
7 5 11 6 1 0 1 0 0 8 66 131 139 217 252 345 413 389 221 177 125 95 146 188 174 135 102 74 41 19 8 0 0 0 0 0 0 0 3 7 11 9 18 24 4 0 0 0 2 6 19 58 39 47
1 0 1 2 5 1 3 19 23 23 141 100 117 178 120 105 104 135 124 30 0 2 5 7 5 3 2 3 2 1 0 0 0 0 1 5 2 0 1 5 15 26 23 22 28 43 26 29 42 48 48 50 63 60
6 8 17 3 6 1 1 34 78 106 12 105 33 13 55 13 0 0 8 25 5 6 6 23 28 11 2 0 0 0 0 0 0 0 0 0 0 0 0 19 29 25 37 54 47 45 26 39 28 27 34 49 45 39
0 1 12 21 0 0 2 21 29 13 7 14 6 0 24 14 8 27 97 90 43 34 33 41 30 0 0 0 0 0 0 0 0 0 0 0 0 0 0 13 27 27 34 20 27 20 28 28 43 42 40 37 31 21

GFSWCAN_con_mlcape_138.txt.gz
CAPE
0 0 0 1 1 2 1 2 1 2 1 0 0 0 0 0 0 1 0 4 2 0 0 0 0 0 0 18 80 102 38 0 0 1 0 0 7 22 15 1 5 22 8 0 0 5 64 116 84 159 488 362 380 445
2 0 0 0 0 1 2 2 1 1 1 0 0 0 0 0 0 2 1 2 3 6 0 0 0 0 0 0 1 98 0 0 0 0 0 1 0 56 28 39 5 24 22 15 1 85 128 158 215 45 164 297 372 491
1 0 0 0 1 0 1 2 2 2 2 0 0 0 0 0 1 3 2 19 14 2 0 0 0 0 0 0 0 91 34 20 16 0 21 0 0 28 2 45 19 33 78 19 26 141 74 161 126 40 59 304 240 126
0 0 0 0 0 0 0 3 0 1 2 0 0 0 0 0 0 0 7 29 11 5 0 0 0 0 0 0 0 17 76 95 103 83 38 68 36 6 57 7 57 3 19 18 9 22 49 29 56 64 106 180 99 61
0 0 0 0 0 0 0 3 0 1 2 0 0 0 0 0 0 0 9 9 20 0 1 0 0 0 0 0 0 0 6 44 67 61 21 11 1 0 50 3 13 47 92 0 0 6 173 84 156 86 122 192 194 128
0 0 0 0 0 0 0 4 4 0 2 0 0 0 0 0 0 4 11 9 16 3 3 0 0 0 0 0 0 0 0 4 41 67 2 1 11 46 35 0 7 75 36 8 26 7 10 17 205 232 179 268 325 356
0 0 0 0 0 0 0 4 6 9 0 0 0 0 0 0 0 2 7 0 4 1 3 0 0 0 5 1 0 0 0 7 24 49 10 65 100 80 104 61 38 6 0 0 0 1 244 152 153 201 239 349 406 478
0 0 1 1 1 0 0 0 4 0 0 0 0 0 0 0 0 1 1 0 3 0 6 5 0 43 55 13 6 0 0 25 31 30 79 72 9 4 0 32 40 0 0 0 0 0 37 197 186 143 341 339 547 340
1 2 4 3 5 5 4 2 16 0 0 0 0 0 0 3 2 0 0 0 0 2 2 1 0 20 27 18 7 4 24 45 78 66 116 115 82 0 0 155 45 0 0 0 0 0 10 3 256 262 375 324 557 512
12 2 5 3 4 5 7 12 7 0 0 0 1 7 2 0 0 0 1 13 14 7 3 0 0 0 12 64 6 25 70 73 59 75 56 4 0 17 270 157 89 11 0 0 0 13 40 38 31 106 107 333 402 560
16 9 4 2 2 2 1 21 0 0 0 2 10 1 0 0 5 5 13 12 3 13 1 0 0 0 0 1 0 87 72 51 31 66 42 43 10 45 163 43 172 52 0 0 0 8 28 98 190 57 94 293 356 453
13 3 0 0 0 0 0 1 0 0 9 1 2 0 0 9 3 11 16 31 10 8 18 2 0 2 5 21 14 1 45 11 25 10 0 6 56 176 36 47 32 64 0 0 0 38 115 140 134 145 242 292 308 390
10 1 1 0 0 0 2 0 0 0 0 0 0 0 2 3 5 13 23 26 35 10 36 22 23 9 132 77 20 7 16 14 7 14 20 33 152 170 91 33 0 0 0 0 6 32 106 121 97 77 189 233 250 292
1 3 1 1 0 0 1 0 0 0 0 1 1 1 1 3 1 26 72 23 28 73 48 37 20 39 54 39 78 0 0 4 37 39 43 69 107 51 103 0 0 0 0 29 49 40 74 232 115 36 132 272 287 293
6 2 1 1 0 0 1 0 0 3 1 2 1 3 0 1 3 3 92 74 91 78 90 71 38 43 66 110 34 74 50 6 24 20 194 288 134 132 145 21 16 20 32 14 62 98 94 246 169 5 157 183 32 6
7 0 0 0 1 0 0 0 1 6 7 0 9 3 33 5 6 33 10 25 32 78 60 50 45 20 16 17 31 59 20 5 91 213 106 354 512 306 367 225 139 55 40 18 47 91 165 195 46 17 69 0 0 24
0 0 5 3 0 0 0 0 4 5 7 40 20 19 6 1 16 35 26 31 42 88 70 57 51 21 31 33 4 9 0 53 3 60 0 0 222 673 277 162 73 68 45 89 172 224 186 17 0 79 37 0 0 14
1 16 0 0 0 0 0 1 6 19 20 31 23 14 26 32 1 7 34 10 29 106 120 32 60 86 43 43 53 31 16 40 102 117 58 73 244 861 479 167 33 22 96 131 97 13 0 9 65 41 53 7 0 8
3 0 0 0 1 19 2 2 3 0 3 38 34 19 18 3 42 37 17 10 10 72 60 60 55 22 50 52 103 112 143 127 72 0 0 1 51 589 649 554 275 209 196 164 85 0 1 69 18 3 6 3 0 0
0 0 1 0 3 4 9 22 4 15 1 25 23 22 4 22 19 18 19 25 24 34 29 5 1 30 29 36 184 81 8 39 68 26 0 0 154 576 527 468 448 347 269 263 183 92 100 131 117 75 51 73 108 113
0 16 1 2 0 1 2 3 18 15 14 10 12 18 8 7 8 5 7 4 13 16 10 9 12 22 113 197 221 48 71 33 4 95 91 151 206 185 360 353 399 377 420 249 213 156 67 240 216 158 144 119 92 93
34 3 3 1 8 8 1 2 13 65 28 24 49 38 21 9 14 17 12 9 7 11 6 1 0 5 27 206 181 33 0 106 373 196 34 44 238 335 347 239 178 186 432 433 318 277 212 349 379 595 663 647 670 622
23 16 16 20 2 7 0 14 31 16 15 36 29 19 19 14 28 31 3 7 1 2 0 9 19 9 15 71 180 229 206 201 96 94 83 56 76 46 0 293 262 423 457 223 83 565 310 235 187 371 333 282 286 293
2 17 0 8 15 1 13 22 17 22 16 17 11 8 13 24 75 16 15 19 32 30 82 51 37 46 61 159 126 100 74 40 47 88 108 197 256 282 212 239 156 169 379 226 307 326 337 165 7 111 80 39 10 4
1 0 1 0 3 10 17 14 17 11 9 17 16 11 24 28 46 46 44 5 16 2 16 21 13 13 39 28 81 78 65 70 32 196 210 316 249 208 101 82 40 21 34 39 31 35 30 13 4 0 0 0 0 0
0 4 2 15 11 13 16 19 14 4 1 4 6 26 4 20 27 1 30 90 1 2 4 0 20 58 134 208 126 108 44 46 106 168 201 158 108 30 39 101 30 0 0 0 0 0 0 0 0 0 0 0 0 0
0 5 17 12 11 6 11 9 3 8 3 7 12 36 35 54 43 139 61 38 5 142 213 90 47 141 245 196 195 72 100 77 59 89 125 77 4 2 19 89 3 0 0 0 0 0 0 0 0 0 0 3 2 1
8 5 7 12 13 16 12 9 20 9 16 55 77 14 41 88 124 120 68 182 248 238 118 101 97 80 9 9 40 147 106 14 0 1 47 113 55 97 4 0 0 0 0 0 0 0 0 0 0 0 0 0 0 0
10 3 11 14 13 21 14 11 9 15 15 87 29 60 110 165 272 247 175 88 358 347 136 107 21 16 48 57 14 0 7 44 21 20 24 33 24 0 0 0 0 0 0 0 0 0 0 0 0 0 0 0 18 39
13 12 17 28 6 0 1 5 5 6 27 73 67 67 184 308 191 118 72 129 138 165 292 174 81 45 94 142 135 141 143 94 61 28 4 0 0 0 0 0 1 2 0 0 0 0 0 0 0 0 0 25 30 16
10 1 1 0 0 0 0 0 4 33 55 62 66 55 105 129 244 150 78 58 91 98 58 60 52 39 32 23 12 7 6 4 2 1 1 0 0 2 7 13 11 16 19 23 15 3 6 8 25 39 31 25 22 14
0 0 3 1 0 0 16 13 77 129 126 183 56 51 55 22 25 1 8 33 2 3 7 13 4 8 10 0 0 0 0 0 0 0 0 0 8 8 11 14 22 27 40 47 37 42 25 38 33 21 26 34 20 16
1 3 2 4 17 9 19 40 39 11 19 6 12 23 2 0 0 4 13 11 8 14 6 0 0 0 0 0 0 0 0 0 0 0 0 0 0 0 0 1 23 33 37 20 21 23 18 20 22 14 11 11 22 14

GFSWCAN_con_mlcape_141.txt.gz
CAPE
1 1 1 0 0 1 2 2 5 2 1 1 0 0 0 0 0 1 0 4 0 0 0 0 0 0 0 3 4 14 18 13 0 0 0 0 0 3 0 0 0 0 22 0 0 0 48 70 91 244 388 304 264 154
0 1 0 0 0 1 1 1 2 3 1 1 0 0 0 0 0 0 0 3 6 1 0 0 0 0 0 0 1 2 60 15 0 0 0 1 0 22 29 0 30 1 20 61 0 48 80 72 71 151 86 493 289 426
1 0 0 0 0 0 0 2 3 1 0 1 0 0 0 0 1 1 0 0 0 0 0 0 0 0 0 0 0 1 101 38 3 10 16 18 11 44 37 20 0 37 39 29 35 52 38 140 104 3 37 215 69 32
2 0 0 0 0 0 0 0 5 0 3 0 0 0 0 0 0 0 1 0 5 3 1 0 0 0 0 0 0 0 1 18 27 35 70 31 13 55 37 5 4 4 2 30 40 8 104 15 29 0 11 48 0 0
0 0 0 0 0 0 0 0 5 3 3 2 0 0 0 0 0 0 0 0 4 7 0 0 0 0 0 0 0 0 0 0 32 67 99 72 95 55 27 1 0 31 48 5 1 29 124 2 6 24 35 41 28 5
0 0 0 0 0 0 0 0 6 7 4 0 0 0 0 0 0 0 2 0 10 1 1 0 0 0 0 6 1 0 0 1 7 51 89 22 103 46 1 15 11 4 0 19 51 2 0 0 1 19 35 104 114 133
0 0 0 0 0 0 0 0 8 10 1 0 0 0 0 0 0 0 0 0 0 0 1 2 0 4 0 0 0 0 0 0 16 24 44 86 69 49 34 28 32 0 12 31 8 1 0 0 1 116 25 129 228 332
0 0 0 4 0 0 0 0 0 5 0 0 0 0 0 0 0 0 0 0 0 0 1 3 0 23 37 34 1 0 0 0 9 22 56 120 53 29 0 0 33 37 2 0 35 63 40 52 20 28 54 200 254 412
0 9 2 7 5 5 3 2 1 3 0 0 0 0 0 0 0 0 0 0 0 0 2 8 0 0 0 36 32 1 1 0 17 18 38 139 80 0 0 0 0 0 0 0 0 0 1 106 161 11 105 240 256 269
1 10 13 7 5 5 5 8 15 14 0 0 0 7 3 10 0 0 0 1 2 11 3 2 0 1 7 41 67 20 27 21 17 39 91 72 82 42 17 0 0 30 21 0 0 0 0 0 7 65 48 234 403 399
0 13 17 7 4 3 4 1 24 3 0 2 9 15 1 0 3 3 4 1 1 6 0 0 0 0 36 9 69 34 131 93 77 212 127 41 9 1 9 0 8 99 107 0 0 0 42 8 8 30 34 20 254 381
0 10 6 0 0 2 0 0 4 0 3 1 0 1 0 1 0 2 0 9 2 0 0 0 0 0 8 6 13 16 41 24 22 18 17 5 15 50 13 0 0 223 28 0 0 0 16 90 173 113 42 51 361 243
0 16 0 0 0 0 0 0 1 0 0 0 0 0 0 2 2 6 5 16 14 16 26 34 7 28 40 0 0 23 35 29 0 0 0 6 33 40 127 245 273 178 10 0 0 2 48 60 107 117 176 326 310 340
7 8 5 4 1 0 0 1 0 0 0 7 2 0 0 2 3 0 9 0 11 0 52 66 52 68 163 9 0 0 0 2 11 2 0 234 11 22 126 119 166 111 0 0 0 39 40 53 47 78 114 215 255 294
12 2 5 2 1 0 0 1 0 0 6 1 4 0 0 0 2 16 5 3 6 1 17 63 80 55 90 93 87 6 1 0 0 32 76 140 600 728 134 39 15 1 15 28 19 0 32 186 26 9 63 266 205 140
12 2 0 0 0 0 0 0 0 1 7 1 1 0 0 13 10 0 0 4 14 36 105 66 29 33 38 39 21 25 18 16 61 20 112 377 463 443 517 399 222 60 128 36 36 133 115 172 22 0 159 58 6 10
9 0 0 0 0 0 1 0 1 2 10 24 0 0 0 0 0 0 0 0 7 25 29 33 30 16 41 16 0 8 24 86 71 6 2 74 216 363 365 577 240 207 66 27 108 133 256 131 10 14 31 0 0 37
4 1 2 8 2 1 2 0 3 16 7 1 35 40 33 3 0 2 0 6 0 32 54 25 8 18 45 23 51 46 108 132 58 3 19 39 182 203 321 321 259 210 80 307 306 243 108 11 3 59 19 0 81 23
3 0 0 2 0 2 0 2 1 5 1 20 27 25 11 14 8 0 6 35 51 65 53 26 29 45 6 6 32 48 108 34 2 3 4 16 46 18 143 285 399 110 312 195 116 18 0 0 44 129 30 1 1 29
0 0 0 1 2 5 8 12 3 15 0 11 16 17 23 7 2 17 12 33 27 38 16 1 3 35 24 5 11 43 57 74 20 0 0 0 0 20 66 177 642 249 426 236 67 0 49 45 73 74 5 5 0 0
0 0 1 2 1 0 0 6 16 5 0 7 11 12 4 5 1 0 0 0 9 25 2 0 0 0 72 169 64 0 14 13 3 0 0 0 0 0 48 231 230 654 291 317 139 141 206 102 117 232 194 68 36 20
10 4 3 1 7 11 0 0 0 24 1 0 5 6 19 4 10 5 7 10 0 0 3 0 0 0 12 28 98 89 23 76 77 0 6 15 28 32 43 3 1 229 381 302 261 251 272 294 322 242 206 335 177 151
25 14 13 5 5 4 0 0 12 12 12 24 42 13 5 2 6 25 14 2 0 0 0 0 0 0 0 0 129 181 21 18 72 199 162 124 126 0 0 0 7 94 3 25 90 42 76 63 184 241 216 231 185 132
15 12 7 11 0 0 4 19 21 18 19 25 11 2 1 23 15 0 1 2 2 5 0 0 16 17 69 22 20 76 154 279 228 116 156 249 154 73 51 97 0 75 51 0 0 0 0 0 9 63 45 4 1 20
8 0 0 0 7 20 12 2 7 19 7 16 12 4 26 18 6 0 11 8 9 2 12 14 11 13 26 38 44 74 89 113 76 64 104 197 2 1 13 19 0 13 54 108 160 96 20 33 0 0 0 0 0 0
0 1 3 15 3 8 8 13 5 1 0 1 2 17 4 0 4 0 0 52 1 0 7 1 10 18 37 48 50 63 81 70 49 34 56 100 64 0 0 0 21 11 5 12 2 3 0 0 0 0 0 0 0 0
0 3 8 2 5 17 19 36 16 0 3 2 9 3 1 10 22 32 23 2 1 48 117 52 16 17 77 81 40 29 21 15 5 24 42 76 35 0 0 12 40 22 0 0 0 0 0 0 0 1 1 1 0 0
4 9 7 23 15 17 8 4 0 4 5 10 26 11 16 43 31 14 4 55 136 94 48 35 19 7 22 65 21 30 36 34 25 1 0 0 0 0 8 12 0 0 0 0 0 0 0 0 0 0 0 0 0 0
1 7 9 4 13 13 10 5 0 6 2 5 11 15 28 26 57 48 124 246 102 29 3 23 25 0 0 0 1 2 2 9 35 10 6 3 12 0 0 0 0 0 0 0 0 0 0 0 0 0 0 8 12 5
2 8 4 13 15 2 0 0 1 5 6 7 21 21 29 35 23 31 16 53 57 45 0 27 46 31 19 8 0 4 3 27 27 14 0 0 0 0 0 0 0 0 0 0 0 0 0 0 0 0 2 0 1 4
15 4 1 0 0 0 0 0 0 2 12 33 52 22 28 14 50 91 53 21 46 121 99 99 120 116 83 114 66 41 75 59 24 0 5 0 0 0 0 0 0 0 0 0 0 0 0 0 0 0 1 1 0 0
1 0 0 0 0 3 0 1 5 21 73 49 9 4 34 53 26 10 20 68 49 38 31 5 2 0 0 0 0 0 0 0 0 0 0 0 1 1 3 4 12 6 8 1 2 1 0 0 6 5 8 5 6 0
0 1 0 0 4 25 35 62 44 43 13 40 25 5 12 21 16 25 35 14 10 0 0 0 0 0 0 0 0 0 0 0 0 0 0 0 0 0 0 0 6 13 11 10 15 10 4 5 2 0 0 0 0 0

GFSWCAN_con_mlcape_144.txt.gz
CAPE
1 1 0 1 1 0 0 0 4 7 7 1 0 0 0 0 0 0 0 0 2 0 0 0 0 0 0 0 0 4 21 0 0 0 0 0 0 0 0 0 0 0 0 0 0 0 2 36 18 34 81 116 108 42
1 0 1 1 0 0 0 0 2 4 1 1 1 0 0 0 0 2 0 0 0 7 0 0 0 0 0 0 0 0 27 2 9 0 0 0 0 1 0 2 4 8 1 2 0 3 19 25 36 52 205 137 128 104
0 1 0 0 0 0 0 0 3 2 0 0 2 0 0 0 0 5 0 0 1 5 0 0 0 0 0 0 0 0 3 14 0 0 0 0 0 0 0 6 16 1 1 0 4 45 68 71 5 26 231 279 258 155
2 1 0 1 0 0 0 0 0 4 0 1 2 0 0 0 0 3 1 0 0 8 0 0 0 0 0 0 0 0 0 0 0 0 3 1 0 1 0 2 2 35 12 10 0 0 23 33 11 57 197 241 206 111
0 0 0 0 0 0 0 0 0 11 2 5 1 1 0 0 0 0 0 0 0 3 0 0 0 0 0 0 0 0 0 0 0 19 18 0 10 9 1 0 0 4 9 6 1 0 1 4 0 28 1 0 0 0
0 0 0 0 0 0 0 0 0 2 9 3 0 0 0 0 0 0 0 0 0 6 2 0 0 0 0 0 0 0 0 0 0 19 23 25 30 1 6 0 4 0 0 0 3 0 0 0 0 0 0 0 0 0
0 0 0 0 0 0 0 0 0 13 12 1 0 0 0 0 0 0 0 0 0 0 6 1 0 0 6 0 0 0 0 0 25 44 9 13 8 41 0 3 36 0 0 1 0 0 0 0 0 2 17 2 0 0
0 0 0 0 3 2 0 0 0 4 8 0 0 0 0 0 0 0 0 0 0 4 1 3 0 0 4 57 10 0 0 0 5 27 5 20 16 4 1 38 61 12 1 0 0 0 0 0 0 0 0 34 29 14
0 0 6 6 6 5 6 5 3 1 1 0 0 0 0 0 0 0 0 0 0 0 2 5 0 12 9 20 29 1 0 0 0 0 0 5 7 3 0 26 31 31 2 0 0 0 0 0 0 0 0 30 41 5
0 0 7 16 6 6 6 4 6 10 10 0 0 2 1 3 0 0 0 1 2 6 1 1 0 0 33 23 34 6 7 0 0 0 0 0 0 0 0 8 30 4 0 0 0 0 0 0 0 1 0 0 74 54
0 0 7 15 6 5 3 4 2 18 0 0 0 6 10 7 4 0 6 2 1 1 0 0 0 0 27 0 3 30 40 51 16 27 7 0 0 0 25 29 11 1 1 2 0 0 0 0 0 0 0 4 28 50
0 0 2 8 0 3 3 0 22 4 2 1 1 0 2 3 0 1 5 10 0 0 4 1 0 0 0 0 17 6 12 21 26 2 18 0 5 20 22 13 2 0 0 6 4 0 0 0 0 0 0 0 82 85
0 0 7 5 1 0 0 0 4 0 0 0 3 0 1 0 2 3 1 6 22 23 18 1 5 0 0 0 1 14 15 13 0 0 6 24 4 6 0 4 0 0 0 3 33 0 0 0 0 0 0 0 1 112
0 0 16 7 4 0 0 0 1 0 0 5 17 0 0 1 0 1 2 18 1 0 0 0 5 20 3 0 0 1 0 4 0 0 0 101 192 41 22 7 18 103 44 0 0 0 0 0 12 7 22 61 132 215
0 7 8 0 3 1 0 0 0 0 5 6 8 2 0 0 0 0 10 4 7 0 0 0 22 12 19 1 0 4 0 1 0 4 59 138 441 411 91 80 154 83 56 1 0 0 0 0 0 0 38 107 148 170
5 7 0 0 0 0 0 2 0 0 24 10 0 0 0 0 15 2 0 0 0 1 0 8 9 6 8 11 34 30 0 0 0 7 43 11 35 247 250 190 91 68 40 0 0 0 0 13 0 0 27 65 109 181
16 0 3 0 0 0 0 0 0 1 8 17 0 0 0 0 1 14 1 0 0 0 8 20 12 0 7 8 0 6 4 19 31 6 27 68 6 4 85 170 257 179 51 0 0 0 0 0 0 0 5 0 0 6
1 5 0 14 2 4 3 0 2 11 12 0 0 0 2 1 1 0 1 2 0 0 21 9 2 0 14 16 17 8 70 49 1 0 0 0 1 2 51 123 194 89 37 35 16 15 37 1 0 0 0 0 0 2
6 0 0 11 3 1 0 0 1 4 2 0 0 0 0 0 0 0 0 2 2 0 3 0 4 1 11 26 2 8 11 3 0 0 0 0 0 0 0 50 119 251 239 132 137 70 25 0 0 0 0 0 0 0
0 0 0 1 4 2 8 8 7 8 0 0 0 0 0 0 0 0 0 0 0 2 10 0 0 0 0 7 0 5 25 20 0 1 0 0 0 0 3 72 125 185 340 81 7 0 0 0 0 0 0 0 0 0
0 0 0 3 1 2 0 2 9 5 0 0 0 0 0 0 0 0 0 0 0 1 2 0 0 0 1 13 37 17 23 8 0 0 0 0 0 11 14 11 66 167 249 151 2 0 0 0 17 35 0 0 0 0
1 9 17 2 3 6 0 0 0 0 0 0 0 0 0 0 0 0 0 0 0 0 0 0 0 0 0 8 31 4 0 0 0 0 0 0 0 12 19 1 34 63 77 81 38 64 111 86 74 65 118 54 66 57
4 9 6 6 2 2 0 0 1 0 0 5 9 8 1 1 0 0 0 0 0 0 0 0 0 0 0 12 8 4 43 23 0 0 12 15 1 0 1 0 12 13 18 10 39 56 43 31 28 38 22 14 33 3
5 6 3 4 2 0 0 6 2 2 11 7 9 4 1 4 6 0 0 0 0 1 0 0 0 0 0 0 1 10 76 25 0 69 55 5 55 34 15 27 17 13 1 0 1 10 4 1 25 31 47 41 50 3
10 0 1 1 3 5 7 7 3 5 0 9 1 0 0 16 3 0 0 11 0 0 0 0 0 0 0 2 41 44 10 7 75 74 69 57 27 0 12 5 0 0 0 0 0 0 0 2 18 3 0 17 5 0
0 0 0 4 1 0 9 3 7 0 0 0 0 6 9 0 2 0 0 26 7 2 0 1 7 1 0 0 6 33 45 104 49 27 15 5 1 0 0 0 1 1 30 41 39 38 0 0 0 0 0 0 0 0
0 0 0 0 1 13 7 10 11 0 0 0 3 3 1 6 3 0 5 0 0 27 47 1 0 0 0 3 7 29 58 67 27 28 33 25 2 0 0 0 7 12 4 14 14 0 0 0 0 0 0 0 0 0
0 0 4 16 13 3 4 5 1 10 14 1 0 9 1 20 5 5 15 35 30 22 13 2 7 21 13 4 6 8 6 6 5 11 19 12 6 1 7 4 1 0 0 0 0 0 0 0 0 0 0 0 0 0
0 3 3 1 3 9 3 5 8 14 1 0 2 8 17 19 37 39 0 8 4 18 5 0 0 3 0 2 14 16 6 3 7 2 0 0 2 10 3 0 0 0 0 0 0 0 0 0 0 0 0 0 0 0
0 0 0 1 5 2 0 0 0 1 3 9 7 0 14 6 3 19 58 12 5 20 29 52 3 2 0 0 1 20 22 30 46 10 0 0 0 0 0 0 0 0 0 0 0 0 0 0 0 0 0 0 0 0
5 3 0 1 0 0 0 0 0 0 14 0 0 21 16 5 19 27 28 37 45 43 26 43 65 72 38 5 0 1 10 25 19 0 0 0 0 0 0 0 0 0 0 0 0 0 0 0 0 0 0 0 0 0
4 1 0 0 0 0 0 0 0 13 21 5 23 11 8 11 20 51 39 20 24 37 56 32 3 0 0 1 2 1 0 0 0 0 0 0 0 0 0 0 0 0 0 0 0 0 0 0 0 0 0 0 0 0
0 0 0 0 0 10 16 15 30 14 15 5 8 5 24 4 8 33 16 8 2 0 0 0 0 0 0 0 0 0 0 0 0 0 0 0 0 0 0 0 0 0 0 0 0 0 0 0 0 0 0 0 0 0

GFSWCAN_con_mlcape_147.txt.gz
CAPE
0 1 1 1 3 1 0 0 0 1 18 10 3 1 0 0 0 0 0 0 0 2 0 0 0 0 0 0 0 0 0 0 0 0 0 0 0 0 0 0 0 0 0 0 0 0 0 0 26 9 0 20 69 78
1 1 1 1 2 0 0 0 0 13 1 1 3 3 1 1 0 3 0 0 0 0 0 0 0 0 0 0 0 0 0 0 6 1 0 0 0 0 0 0 0 0 0 0 0 0 0 0 7 81 65 102 113 87
1 1 2 0 1 0 0 0 0 10 2 1 2 3 1 2 0 4 1 0 0 2 0 0 0 0 0 0 0 0 0 3 3 0 0 0 0 0 0 1 0 0 0 0 0 0 0 0 13 138 119 117 135 69
0 0 0 0 0 1 1 0 0 0 10 1 5 1 1 2 0 4 1 0 1 4 1 0 0 0 0 0 0 0 0 0 0 0 0 0 0 0 2 2 2 2 0 0 0 0 0 0 0 48 177 188 185 126
0 0 0 0 0 0 0 0 0 0 3 4 4 2 0 1 1 0 0 0 0 0 0 0 0 0 0 0 0 0 0 0 0 0 0 0 0 0 0 0 1 3 1 0 0 0 1 0 2 52 206 225 194 181
0 0 0 0 0 0 0 0 0 0 0 16 4 0 0 1 0 0 0 0 0 0 16 1 0 0 0 0 0 0 0 0 0 0 3 0 0 0 0 0 0 0 0 0 0 0 0 0 0 46 100 105 171 24
0 0 0 0 0 0 0 0 0 0 4 17 7 0 0 0 1 0 0 0 0 0 4 3 0 0 0 14 0 0 0 0 0 0 27 28 40 41 2 0 0 1 4 10 3 0 0 0 0 0 0 7 0 20
0 0 0 0 4 4 4 1 0 3 5 10 2 0 0 0 0 0 0 0 0 9 10 3 0 0 25 70 0 0 0 0 0 1 30 31 8 0 0 0 17 16 22 11 0 0 0 0 0 0 0 0 0 0
0 0 0 0 9 6 6 4 5 4 3 3 0 0 0 0 0 0 0 0 0 0 5 3 0 0 4 14 60 0 0 0 0 0 18 18 0 0 0 7 42 36 27 27 0 0 0 0 0 0 0 0 0 0
0 0 0 0 13 8 7 2 5 4 14 7 0 7 16 10 13 0 1 1 2 10 6 2 1 0 0 11 12 48 0 0 0 0 11 6 0 0 0 0 63 47 30 0 0 0 0 0 0 0 0 0 0 0
0 0 0 2 16 4 4 6 4 24 8 0 0 6 28 25 10 5 5 2 1 1 3 0 0 0 0 17 11 13 15 6 1 6 0 0 0 0 0 0 5 1 0 0 0 0 0 0 0 0 0 0 0 0
0 0 0 1 12 1 3 4 6 25 10 4 1 0 0 7 2 4 6 12 0 0 0 0 0 0 0 0 18 1 8 10 17 0 11 0 0 0 0 0 1 17 15 0 0 0 0 0 0 0 0 0 0 0
0 0 0 4 13 3 0 0 2 12 0 0 1 2 1 0 1 2 5 10 23 30 32 6 1 0 0 0 3 9 4 1 0 0 11 29 0 0 0 0 0 0 0 0 0 0 0 0 0 0 0 0 0 0
0 0 0 9 9 5 0 0 2 1 0 2 23 0 0 3 1 1 4 5 5 14 21 0 3 2 0 0 0 0 0 3 0 0 0 32 130 123 74 4 0 0 0 0 0 0 0 0 0 0 0 0 0 0
1 0 1 7 4 4 0 0 3 0 2 5 15 0 2 0 0 0 0 2 1 2 2 1 5 13 11 1 1 0 1 0 0 0 12 57 145 164 78 57 9 11 10 20 0 0 0 0 0 0 0 0 0 0
0 9 0 0 0 0 0 0 0 0 16 19 1 0 0 0 0 0 0 0 0 0 0 0 9 5 19 25 3 19 0 0 0 0 13 0 1 29 82 77 74 58 10 1 0 0 0 0 0 0 0 0 11 15
10 0 0 4 0 0 0 0 0 3 12 29 0 0 0 0 0 0 0 0 0 0 1 11 3 14 10 15 1 0 5 10 4 12 18 36 1 0 0 73 103 66 31 9 0 0 0 0 0 0 0 0 2 28
0 2 0 0 0 5 9 0 10 6 1 0 0 0 0 0 0 0 0 0 5 0 7 15 5 0 17 19 13 6 18 0 0 0 0 0 0 1 0 2 122 52 14 11 0 0 0 0 0 0 0 0 12 32
0 0 0 1 10 4 5 1 0 1 3 0 0 0 0 0 0 0 0 0 3 2 4 4 0 0 0 4 0 0 7 10 0 0 0 0 0 0 6 31 61 138 104 42 5 0 0 0 0 0 0 0 0 0
0 0 0 0 15 2 10 0 0 2 0 0 0 0 0 0 0 0 0 0 0 3 0 0 0 0 0 0 0 0 7 1 0 0 0 0 0 0 0 3 34 105 200 72 14 2 0 0 0 0 5 3 0 0
1 0 0 0 8 1 4 0 7 0 0 0 0 0 0 0 0 0 0 0 0 0 0 0 0 0 0 0 0 0 2 16 0 0 0 0 0 0 0 0 30 55 74 25 19 1 0 0 0 0 0 0 0 0
1 6 22 16 16 15 0 0 0 0 0 0 0 0 0 0 0 0 0 0 0 0 0 0 0 0 0 0 0 4 0 0 0 0 0 0 0 0 0 0 4 14 33 41 20 10 3 7 1 0 0 0 0 0
0 23 30 7 6 4 0 0 0 0 0 0 4 2 0 0 0 0 0 0 0 0 0 0 0 0 0 0 0 0 0 0 2 0 0 9 0 0 0 7 20 27 54 66 58 56 29 9 7 0 0 3 0 0
0 19 0 4 0 0 2 1 0 0 11 10 2 0 5 4 0 0 0 0 0 0 0 0 0 0 0 0 0 0 0 0 0 0 0 13 23 8 7 4 1 15 30 23 3 4 31 34 38 37 9 2 10 0
0 0 0 2 7 2 0 0 5 3 2 2 8 1 0 25 13 0 0 0 0 0 0 0 0 0 0 0 0 0 0 0 6 0 35 22 43 21 20 4 5 0 0 0 0 1 0 0 8 16 6 40 13 5
0 0 1 4 1 0 1 2 7 9 3 0 0 3 25 18 8 1 0 1 5 0 0 1 1 0 0 0 0 0 5 7 13 50 29 44 29 38 17 0 0 0 3 5 0 0 0 1 1 1 12 27 9 9
1 0 0 0 0 2 2 7 4 7 0 2 10 3 6 7 2 0 1 1 0 6 16 1 1 0 0 0 0 5 17 20 22 53 63 29 10 0 4 0 0 2 38 40 26 12 4 0 0 0 0 0 0 3
1 0 0 9 0 0 0 2 3 3 10 0 0 3 6 0 2 16 12 20 27 7 7 1 0 1 0 0 0 0 7 11 18 15 8 3 2 0 0 1 0 0 1 21 2 0 0 0 0 0 0 0 0 0
0 0 0 0 1 4 0 0 4 21 9 9 4 0 1 21 19 1 0 3 1 0 8 10 0 0 0 0 0 0 0 2 14 11 7 3 1 1 1 0 0 0 0 0 0 0 0 0 0 0 0 0 0 0
0 0 0 0 4 1 4 11 12 11 11 15 22 6 2 23 20 30 24 8 20 6 0 0 0 0 7 8 1 0 0 0 2 5 2 0 0 0 0 0 0 0 0 0 0 0 0 0 0 0 0 0 0 0
0 5 2 2 0 0 0 0 0 0 1 0 0 4 6 3 16 17 21 19 19 13 9 16 13 0 14 11 0 0 0 0 0 0 0 0 0 0 0 0 0 0 0 0 0 0 0 0 0 0 0 0 0 0
11 2 3 0 0 0 0 0 11 6 5 16 6 7 1 5 3 6 11 5 23 39 24 2 9 15 4 1 0 3 0 0 0 0 0 0 0 0 0 0 0 0 0 0 0 0 0 0 0 0 0 0 0 0
0 0 0 0 0 6 9 18 23 17 21 9 2 8 13 5 12 7 0 24 32 0 0 0 0 0 0 0 0 0 0 0 0 0 0 0 0 0 0 0 0 0 0 0 0 0 0 0 0 0 0 0 0 0

GFSWCAN_con_mlcape_150.txt.gz
CAPE
1 1 1 1 3 2 3 0 0 0 8 30 14 7 3 2 1 0 0 0 0 5 0 0 0 0 0 0 0 0 0 0 10 2 0 0 0 0 0 0 0 0 0 0 0 0 0 0 6 6 0 0 7 46
2 1 1 2 2 1 1 0 0 0 18 5 5 6 3 0 1 5 0 0 0 1 0 0 0 0 0 0 0 0 0 0 58 36 5 0 0 0 0 0 0 0 0 0 0 0 0 0 1 14 0 0 30 53
2 3 0 0 0 0 1 1 0 1 3 12 0 3 2 1 2 3 1 0 0 0 0 0 0 0 0 0 0 0 0 0 15 0 2 11 0 0 0 0 0 0 0 0 0 0 0 0 13 45 37 45 34 25
0 0 0 0 0 0 0 1 0 0 0 22 10 3 3 1 2 4 2 1 1 5 0 0 0 0 0 0 0 0 0 0 0 0 6 7 0 0 0 0 0 0 0 0 0 0 0 13 109 127 106 76 33 0
0 0 0 0 0 0 0 0 0 0 0 1 21 5 5 1 1 0 0 1 0 0 1 0 0 0 0 0 0 0 0 0 0 0 11 0 0 0 0 0 0 0 0 0 0 0 0 9 8 136 156 129 60 43
0 0 0 0 0 0 0 0 0 0 0 0 15 7 2 0 0 0 0 0 1 1 2 2 0 0 0 0 0 0 0 0 0 0 0 8 0 0 0 0 0 0 0 0 0 0 0 0 1 92 170 167 105 50
0 0 0 0 0 1 1 2 0 0 0 0 7 8 1 0 2 0 0 1 0 0 20 1 0 0 0 3 0 0 0 0 0 0 0 20 0 0 0 0 0 0 0 0 0 0 0 0 2 10 176 148 77 72
0 0 0 0 0 9 6 5 3 2 3 6 10 5 0 0 1 1 0 0 0 0 24 9 0 0 19 43 0 0 0 0 0 0 0 4 1 0 1 0 0 0 0 0 0 0 0 0 0 0 23 79 108 69
0 0 0 0 0 10 10 6 5 5 2 7 7 0 0 1 0 0 0 1 0 0 7 13 0 0 0 47 27 0 0 0 0 0 3 11 0 1 0 2 0 0 0 12 3 0 0 0 0 1 19 3 17 0
3 0 0 0 0 14 7 6 5 5 7 11 0 0 0 0 7 18 14 16 1 8 0 1 0 0 0 28 47 30 0 0 0 0 0 0 0 0 0 0 0 0 0 2 2 0 0 0 0 0 0 0 0 0
0 0 0 0 0 12 3 7 5 2 12 0 0 0 3 15 21 15 13 4 4 1 1 0 0 0 0 24 18 14 12 10 1 1 0 0 0 0 0 0 0 0 0 0 0 0 0 0 0 0 0 0 0 0
1 0 0 0 1 12 3 4 4 25 14 4 1 1 0 11 10 2 6 15 0 0 0 0 3 0 0 1 9 0 17 14 8 0 2 0 3 12 21 1 0 0 0 0 0 0 0 0 0 0 0 0 0 0
0 0 0 0 1 18 6 0 0 13 13 0 6 2 1 2 2 3 10 17 24 7 26 20 0 0 0 0 2 9 3 3 0 7 14 35 8 62 0 0 0 0 0 0 0 0 0 0 0 0 0 0 0 0
0 0 0 0 2 11 7 0 0 6 0 0 9 0 0 1 3 2 9 0 0 7 7 7 2 13 0 0 0 5 2 8 4 3 0 3 81 48 14 0 0 0 0 0 0 0 0 0 0 0 0 0 0 0
17 1 0 1 8 7 4 0 0 0 1 2 5 0 0 1 1 0 0 0 0 0 0 4 5 14 26 6 6 0 1 0 0 0 0 3 0 14 7 15 2 0 0 0 0 0 0 0 0 0 0 0 0 0
11 1 2 11 9 1 0 0 1 1 10 7 1 0 0 0 0 0 0 0 0 0 2 2 19 16 2 0 7 13 1 3 0 0 0 0 0 0 3 66 76 38 0 0 0 0 0 0 0 0 0 0 0 0
11 1 1 6 2 0 0 0 2 8 6 3 0 0 0 0 0 0 0 0 0 0 7 1 3 5 1 8 0 3 17 9 0 3 2 0 0 0 0 12 73 44 0 0 0 0 0 0 0 0 0 0 0 0
0 3 4 0 0 1 3 3 20 10 8 0 0 0 0 0 0 0 0 0 0 0 3 16 14 0 0 3 5 7 23 1 0 0 0 0 0 0 0 5 31 76 33 2 0 0 0 0 0 0 0 0 0 0
0 5 7 0 5 15 2 0 1 2 1 0 0 0 0 0 0 0 0 0 0 0 1 2 4 0 0 0 0 0 0 0 0 0 0 0 0 0 0 0 43 69 92 27 1 0 0 0 0 0 0 0 0 0
0 0 0 0 2 15 17 1 0 0 0 0 0 0 0 0 0 0 0 0 0 0 1 0 0 0 0 0 0 0 0 0 0 0 0 0 0 0 0 0 0 9 2 5 0 0 0 0 0 0 0 0 7 14
5 0 0 0 17 3 0 0 4 5 0 0 0 0 0 0 0 0 0 0 0 0 0 0 0 0 0 0 0 0 0 0 0 0 0 0 0 0 0 0 0 4 0 0 17 0 0 0 0 0 0 0 1 4
1 15 31 9 15 5 3 0 0 0 0 0 0 0 0 0 0 0 0 0 0 0 0 0 0 0 0 0 0 0 0 0 0 0 0 0 0 0 0 0 0 7 5 3 1 3 0 0 0 0 0 1 0 0
1 5 18 3 2 11 1 0 4 0 0 0 1 10 0 1 0 0 0 0 0 0 0 0 0 0 0 0 0 0 0 0 0 0 0 0 0 0 0 0 4 18 25 18 24 44 22 0 0 0 0 0 0 0
4 2 8 7 0 0 3 8 0 0 0 13 5 1 2 15 0 0 0 0 0 0 0 0 0 0 0 0 0 0 0 0 0 0 0 0 2 9 2 0 1 5 6 3 8 39 47 33 21 16 12 0 0 0
4 4 0 0 2 5 0 0 0 3 4 3 1 1 0 11 14 7 0 0 0 0 0 0 0 0 0 0 0 0 0 0 0 0 0 0 0 2 0 0 0 0 0 2 5 29 27 26 18 33 23 5 0 0
0 0 0 0 3 0 0 1 11 5 7 5 0 0 10 21 7 1 0 0 6 0 0 0 0 0 0 0 0 0 0 0 0 0 8 18 19 20 2 0 0 0 0 0 7 2 0 3 22 17 15 26 10 4
1 2 0 0 0 3 4 4 4 7 10 3 4 4 1 4 4 1 5 15 12 9 4 7 1 0 0 0 0 0 0 0 0 10 29 16 6 0 0 1 0 0 25 5 2 3 0 0 0 3 10 18 26 30
1 2 0 1 0 0 0 1 4 4 10 4 2 2 1 0 0 21 2 9 10 8 2 0 0 0 0 0 0 0 0 1 11 12 19 15 14 9 0 0 0 0 17 21 0 0 0 0 0 0 0 0 0 15
0 0 0 0 0 1 9 6 4 7 4 0 4 4 3 1 11 3 0 0 0 0 1 2 0 0 0 0 0 0 7 16 32 19 30 18 2 2 4 0 0 0 0 0 0 0 0 0 0 0 0 0 0 0
0 0 0 0 4 3 6 4 10 26 16 12 9 4 0 4 8 7 4 1 0 0 0 0 1 2 0 0 0 0 0 4 7 15 10 11 0 5 2 0 0 0 0 0 0 0 0 0 0 0 0 0 0 0
0 0 0 0 0 0 0 0 0 0 1 1 2 2 1 1 4 6 20 26 18 4 4 2 8 5 4 5 0 0 0 0 0 0 0 0 0 0 0 0 0 0 0 0 0 0 0 0 0 0 0 0 0 0
0 1 6 0 0 0 0 10 7 6 10 8 15 3 4 8 4 6 27 47 44 55 27 9 0 0 0 0 0 0 0 0 0 0 0 0 0 0 0 0 0 0 0 0 0 0 0 0 0 0 0 0 0 0
0 0 0 0 1 7 9 0 11 10 3 3 5 6 8 2 11 8 0 1 34 0 0 0 0 0 0 0 0 0 0 0 0 0 0 0 0 0 0 0 0 0 0 0 0 0 0 0 1 0 0 0 0 0